Weather History for Mullan Pass, ID

Change the Weather History Date:

Wednesday, August 7, 2013

  Actual Average (K3TH) Record (K3TH)
Temperature  
Mean Temperature 66 °F -  
Max Temperature 73 °F 85 °F 95 °F (2001)
Min Temperature 61 °F 57 °F 46 °F (1996)
Cooling Degree Days 2    
Growing Degree Days 16 (Base 50)    
Moisture  
Dew Point 39 °F    
Average Humidity 38    
Maximum Humidity 45    
Minimum Humidity 27    
Precipitation  
Precipitation 0.00 in - - ()
Sea Level Pressure  
Sea Level Pressure 29.84 in    
Wind  
Wind Speed 3 mph (WNW)    
Max Wind Speed 8 mph    
Max Gust Speed -    
Visibility 10 miles    
Events      
Averages and records for this station are not official NWS values.
T = Trace of Precipitation, MM = Missing Value Source: NWS Daily Summary

Daily Weather History Graph

Daily Weather History Graph

Search for Another Location

Airport:

Trip Planner

Search our weather history database for the weather conditions in past years. The results will help you decide how hot, cold, wet, or windy it might be!

Date:

Astronomy

Aug. 07, 2013 Rise Set
Actual Time 5:28 AM PDT 8:07 PM PDT
Civil Twilight 4:53 AM PDT 8:41 PM PDT
Nautical Twilight 4:09 AM PDT 9:25 PM PDT
Astronomical Twilight 3:17 AM PDT 10:17 PM PDT
Moon 6:29 AM PDT (8/7) 8:06 PM PDT (8/7)
Length of Visible Light 15h 48m
Length of Day
14h 38m
New Moon, 1% of the Moon is Illuminated
Aug 7
New Moon
Aug 14
First Quarter
Aug 20
Full
Aug 28
Last Quarter
Sep 5
New

Hourly Weather History & Observations

Time (PDT) Temp. Dew Point Humidity Pressure Visibility Wind Dir Wind Speed Gust Speed Precip Events Conditions
12:53 AM 63.0 °F 39.0 °F 41% 29.85 in 10.0 mi SSW 3.5 mph - N/A   Clear
1:53 AM 64.0 °F 36.0 °F 35% 29.84 in 10.0 mi West 3.5 mph - N/A   Clear
2:53 AM 63.0 °F 39.0 °F 41% 29.83 in 10.0 mi Calm Calm - N/A   Clear
3:53 AM 63.0 °F 37.9 °F 40% 29.83 in 10.0 mi WSW 3.5 mph - N/A   Clear
4:53 AM 62.1 °F 37.9 °F 41% 29.82 in 10.0 mi South 3.5 mph - N/A   Clear
5:53 AM 63.0 °F 36.0 °F 37% 29.82 in 10.0 mi WSW 5.8 mph - N/A   Clear
6:53 AM 63.0 °F 39.9 °F 43% 29.84 in 10.0 mi WSW 3.5 mph - N/A   Clear
7:53 AM 64.9 °F 39.9 °F 40% 29.85 in 10.0 mi Calm Calm - N/A   Clear
8:53 AM 64.9 °F 43.0 °F 45% 29.86 in 10.0 mi Calm Calm - N/A   Clear
9:53 AM 66.0 °F 44.1 °F 45% 29.86 in 10.0 mi Calm Calm - N/A   Clear
10:53 AM 68.0 °F 44.1 °F 42% 29.86 in 10.0 mi Calm Calm - N/A   Clear
11:53 AM 69.1 °F 35.1 °F 29% 29.86 in 10.0 mi NW 5.8 mph - N/A   Clear
12:53 PM 70.0 °F 37.0 °F 30% 29.86 in 10.0 mi Variable 4.6 mph - N/A   Clear
1:53 PM 71.1 °F 35.1 °F 27% 29.85 in 10.0 mi Variable 4.6 mph - N/A   Clear
2:53 PM 72.0 °F 39.0 °F 30% 29.84 in 10.0 mi NW 8.1 mph - N/A   Clear
3:53 PM 72.0 °F 41.0 °F 33% 29.84 in 10.0 mi Variable 4.6 mph - N/A   Clear
4:53 PM 71.1 °F 39.9 °F 32% 29.83 in 10.0 mi NW 6.9 mph - N/A   Clear
5:53 PM 70.0 °F 44.1 °F 39% 29.83 in 10.0 mi Variable 3.5 mph - N/A   Clear
6:53 PM 66.9 °F 43.0 °F 42% 29.84 in 10.0 mi NNW 3.5 mph - N/A   Clear
7:53 PM 64.0 °F 39.9 °F 41% 29.84 in 10.0 mi NNW 5.8 mph - N/A   Clear
8:53 PM 63.0 °F 39.0 °F 41% 29.86 in 10.0 mi NNW 4.6 mph - N/A   Clear
9:53 PM 62.1 °F 37.9 °F 41% 29.86 in 10.0 mi NW 3.5 mph - N/A   Clear
10:53 PM 61.0 °F 36.0 °F 39% 29.85 in 10.0 mi NW 3.5 mph - N/A   Clear
11:53 PM 62.1 °F 36.0 °F 38% 29.84 in 10.0 mi NNW 3.5 mph - N/A   Clear